Regional Weather Roundup
Issued by NWS

Home | Current Version | Previous Version | Graphics & Text | Print | Product List | Glossary On
Versions: 1 2 3 4 5 6 7 8 9 10 11 12 13 14 15 16 17 18 19 20 21 22 23 24 25 26 27 28 29 30 31 32 33 34 35 36 37 38 39 40 41 42 43 44 45 46 47 48 49 50
000
ASUS43 KIND 292159
RWRIN

WEATHER ROUNDUP FOR INDIANA
NATIONAL WEATHER SERVICE INDIANAPOLIS IN
600 PM EDT TUE JUL 29 2014

NOTE: "FAIR" INDICATES FEW OR NO CLOUDS BELOW 12,000 FEET WITH NO
SIGNIFICANT WEATHER AND/OR OBSTRUCTIONS TO VISIBILITY.

* - STATION DOES NOT REPORT WEATHER SUCH AS PRECIPITATION OR FOG.

+ - STATION NOT QUALITY CONTROLLED BY THE NATIONAL WEATHER SERVICE.
    USE DATA WITH CAUTION...ESPECIALLY DEWPOINT AND RELATIVE
    HUMIDITY OBSERVATIONS.

INZ001>003-010>013-019-020-292300-
NORTHWEST INDIANA

CITY           SKY/WX    TMP DP  RH WIND       PRES   REMARKS
KNOX *+        SUNNY     75  53  45 N9        30.00F
MONTICELLO +   PTSUNNY   65  61  86 SW5       30.02F
VALPARAISO     MOSUNNY   76  56  49 N6        30.01F

$$

LMZ046-743>745-292300-
SOUTHERN LAKE MICHIGAN

STATION/POSITION TIME  TEMP WIND        PRES
                       AIR  DIR/SP/G
                 (UTC) (F)  (DEG/KT/KT) (MB)
BURNS HARBOR     2100   69   60/  9/ 10 1017.3S
MICHIGAN CITY    2100   65   30/  7/  8   N/A

$$

INZ004-005-014>016-021>024-292300-
NORTH CENTRAL INDIANA

CITY           SKY/WX    TMP DP  RH WIND       PRES   REMARKS
ELKHART        SUNNY     73  52  46 NW10      30.01F
GOSHEN         MOSUNNY   74  54  49 NW15      30.00S
SOUTH BEND     SUNNY     74  53  48 NW12      30.01F
WARSAW +       MOSUNNY   73  54  49 NW14G22   30.00F

$$

INZ006>009-017-018-025>027-292300-
NORTHEAST INDIANA

CITY           SKY/WX    TMP DP  RH WIND       PRES   REMARKS
ANGOLA *+      CLOUDY    63  54  72 NE3       30.00S
AUBURN +       LGT RAIN  70  54  56 SW3       30.01S
FORT WAYNE     PTSUNNY   66  57  72 NE12      30.02R THUNDER

$$

INZ028-029-035-036-043>045-051>053-292300-
WEST CENTRAL INDIANA

CITY           SKY/WX    TMP DP  RH WIND       PRES   REMARKS
GREENCASTLE +  MOSUNNY   72  59  64 W3        30.06F
LAFAYETTE      CLOUDY    70  56  61 N15G21    30.03R
TERRE HAUTE    MOSUNNY   75  56  51 W8        30.06F

$$

INZ030>032-037>040-046>048-054>057-064-065-292300-
CENTRAL INDIANA

CITY           SKY/WX    TMP DP  RH WIND       PRES   REMARKS
COLUMBUS       PTSUNNY   72  55  56 W8        30.05F
INDIANAPOLIS   PTSUNNY   69  59  70 SW9       30.05F
-EAGLE CREEK   MOSUNNY   71  56  58 SW6       30.04F
KOKOMO *+      PTSUNNY   64  61  88 SW8       30.03F
MT COMFORT *+  MOSUNNY   73  59  60 W13       30.05S
SHELBYVILLE    PTSUNNY   73  57  57 W7        30.04F

$$

INZ033-034-041-042-049-050-058-059-292300-
EAST CENTRAL INDIANA

CITY           SKY/WX    TMP DP  RH WIND       PRES   REMARKS
MUNCIE         LGT RAIN  66  58  75 W14       30.04R

$$

INZ060-061-067>069-081>083-085>088-292300-
SOUTHWEST INDIANA

CITY           SKY/WX    TMP DP  RH WIND       PRES   REMARKS
EVANSVILLE     MOSUNNY   79  53  40 VRB3      30.09F

$$

INZ062-063-066-070>080-084-089>092-292300-
SOUTH CENTRAL AND SOUTHEAST INDIANA

CITY           SKY/WX    TMP DP  RH WIND       PRES   REMARKS
BLOOMINGTON    PTSUNNY   75  58  55 VRB3      30.07F

$$



USA.gov is the U.S. government's official web portal to all federal, state and local government web resources and services.